timestamp,surface_pressure_avg,surface_temp_avg,battery_voltage,lat,long
2020-01-17 00:09:01+00:00,233.8648,0.9,12.73,47.84626,-54.09684
2020-01-17 00:19:01+00:00,238.2515,0.9,12.65,47.84626,-54.09684
2020-01-17 00:29:01+00:00,241.6547,0.9,12.65,47.84626,-54.09684
2020-01-17 00:39:01+00:00,246.933,0.9,12.65,47.84626,-54.09684
2020-01-17 00:49:01+00:00,250.2564,0.96,12.65,47.84626,-54.09684
2020-01-17 00:59:01+00:00,250.6114,0.93,12.65,47.84626,-54.09684
2020-01-17 01:09:01+00:00,252.9748,0.9,12.65,47.84626,-54.09684
2020-01-17 01:19:01+00:00,254.5397,0.9,12.65,47.84626,-54.09684
2020-01-17 01:29:01+00:00,255.1448,0.9,12.65,47.84626,-54.09684
2020-01-17 01:39:01+00:00,260.7947,0.9,12.65,47.84626,-54.09684
2020-01-17 01:49:01+00:00,281.4564,0.93,12.65,47.84626,-54.09684
2020-01-17 01:59:01+00:00,303.483,0.9,12.65,47.84626,-54.09684
2020-01-17 02:09:01+00:00,305.2596,0.8,12.65,47.84626,-54.09684
2020-01-17 02:19:01+00:00,294.8913,0.8,12.57,47.84626,-54.09684
2020-01-17 02:29:01+00:00,308.1146,0.8,12.57,47.84626,-54.09684
2020-01-17 02:39:01+00:00,322.408,0.86,12.57,47.84626,-54.09684
2020-01-17 02:49:01+00:00,309.6713,0.8,12.57,47.84626,-54.09684
2020-01-17 02:59:01+00:00,305.1747,0.8,12.57,47.84626,-54.09684
2020-01-17 03:09:01+00:00,323.3931,0.8,12.57,47.84626,-54.09684
2020-01-17 03:19:01+00:00,332.8880000000001,0.8,12.57,47.84626,-54.09684
2020-01-17 03:29:01+00:00,319.2796,0.8,12.57,47.84626,-54.09684
2020-01-17 03:39:01+00:00,323.9246,0.77,12.57,47.84626,-54.09684
2020-01-17 03:49:01+00:00,339.3013,0.79,12.57,47.84626,-54.09684
2020-01-17 03:59:01+00:00,345.50800000000015,0.79,12.57,47.84626,-54.09684
2020-01-17 04:09:01+00:00,336.7679,0.7,12.57,47.84626,-54.09684
2020-01-17 04:19:01+00:00,341.6479,0.7,12.57,47.84626,-54.09684
2020-01-17 04:29:01+00:00,353.8513,0.74,12.57,47.84626,-54.09684
2020-01-17 04:39:01+00:00,350.4279,0.7,12.57,47.84626,-54.09684
2020-01-17 04:49:01+00:00,341.7097,0.7,12.57,47.84626,-54.09684
2020-01-17 04:59:01+00:00,352.7363,0.71,12.57,47.84626,-54.09684
2020-01-17 05:09:01+00:00,360.5779,0.7,12.57,47.84626,-54.09684
2020-01-17 05:19:01+00:00,355.2913,0.7,12.49,47.84626,-54.09684
2020-01-17 05:29:01+00:00,354.3013,0.7,12.49,47.84626,-54.09684
2020-01-17 05:39:01+00:00,354.0379,0.7,12.49,47.84626,-54.09684
2020-01-17 05:49:01+00:00,345.3463,0.7,12.49,47.84626,-54.09684
2020-01-17 05:59:01+00:00,344.0797,0.7,12.49,47.84626,-54.09684
2020-01-17 06:09:01+00:00,351.1129,0.7,12.49,47.84626,-54.09684
2020-01-17 06:19:01+00:00,344.7629,0.7,12.49,47.84626,-54.09684
2020-01-17 06:29:01+00:00,338.2546,0.7,12.49,47.84626,-54.09684
2020-01-17 06:39:01+00:00,339.543,0.7,12.49,47.84626,-54.09684
2020-01-17 06:49:01+00:00,337.2213,0.7,12.49,47.84626,-54.09684
2020-01-17 06:59:01+00:00,322.1196,0.69,12.49,47.84626,-54.09684
2020-01-17 07:09:01+00:00,310.5462,0.69,12.49,47.84626,-54.09684
2020-01-17 07:19:01+00:00,314.6696,0.7,12.49,47.84626,-54.09684
2020-01-17 07:29:01+00:00,307.063,0.7,12.49,47.84626,-54.09684
2020-01-17 07:39:01+00:00,284.6663,0.65,12.49,47.84626,-54.09684
2020-01-17 07:49:01+00:00,274.3981,0.67,12.49,47.84626,-54.09684
2020-01-17 07:59:01+00:00,277.7546,0.6,12.49,47.84626,-54.09684
2020-01-17 08:09:01+00:00,267.3298,0.6,12.49,47.84626,-54.09684
2020-01-17 08:19:01+00:00,249.8998,0.6,12.49,47.84626,-54.09684
2020-01-17 08:29:01+00:00,246.5998,0.6,12.49,47.84626,-54.09684
2020-01-17 08:39:01+00:00,246.2381,0.6,12.49,47.84626,-54.09684
2020-01-17 08:49:01+00:00,240.2881,0.6,12.49,47.84626,-54.09684
2020-01-17 08:59:01+00:00,229.2331,0.6,12.49,47.84626,-54.09684
2020-01-17 09:09:01+00:00,221.4832,0.58,12.49,47.84626,-54.09684
2020-01-17 09:19:01+00:00,217.6081,0.59,12.49,47.84626,-54.09684
2020-01-17 09:29:01+00:00,215.8281,0.58,12.49,47.84626,-54.09684
2020-01-17 09:39:01+00:00,209.0297,0.52,12.49,47.84626,-54.09684
2020-01-17 09:49:01+00:00,200.8231,0.5,12.49,47.84626,-54.09684
2020-01-17 09:59:01+00:00,202.1864,0.4,12.49,47.84626,-54.09684
2020-01-17 10:09:01+00:00,211.9497,0.37,12.49,47.84626,-54.09684
2020-01-17 10:19:01+00:00,211.0681,0.3,12.49,47.84626,-54.09684
2020-01-17 10:29:01+00:00,206.4048,0.3,12.49,47.84626,-54.09684
2020-01-17 10:39:01+00:00,210.1881,0.22,12.49,47.84626,-54.09684
2020-01-17 10:49:01+00:00,218.0415,0.24,12.49,47.84626,-54.09684
2020-01-17 10:59:01+00:00,217.0981,0.27,12.49,47.84626,-54.09684
2020-01-17 11:09:01+00:00,219.2481,0.21,12.49,47.84626,-54.09684
2020-01-17 11:19:01+00:00,228.9714,0.2,12.49,47.84626,-54.09684
2020-01-17 11:29:01+00:00,230.063,0.2,12.49,47.84626,-54.09684
2020-01-17 11:39:01+00:00,224.0148,0.2,12.49,47.84626,-54.09684
2020-01-17 11:49:01+00:00,222.7214,0.2,12.49,47.84626,-54.09684
2020-01-17 11:59:01+00:00,230.8031,0.2,12.49,47.84626,-54.09684
2020-01-17 12:09:01+00:00,234.1331,0.2,12.49,47.84626,-54.09684
2020-01-17 12:19:01+00:00,234.2548,0.2,12.49,47.84626,-54.09684
2020-01-17 12:29:01+00:00,231.4431,0.2,12.49,47.84626,-54.09684
2020-01-17 12:39:01+00:00,236.8264,0.23,12.49,47.84626,-54.09684
2020-01-17 12:49:01+00:00,245.4197,0.3,12.49,47.84626,-54.09684
2020-01-17 12:59:01+00:00,252.2831,0.22,12.49,47.84626,-54.09684
2020-01-17 13:09:01+00:00,247.0848,0.3,12.49,47.84626,-54.09684
2020-01-17 13:19:01+00:00,249.743,0.31,12.49,47.84626,-54.09684
2020-01-17 13:29:01+00:00,267.2464,0.36,12.49,47.84626,-54.09684
2020-01-17 13:39:01+00:00,271.3381,0.16,12.49,47.84626,-54.09684
2020-01-17 13:49:01+00:00,262.1048,0.3,12.49,47.84626,-54.09684
2020-01-17 13:59:01+00:00,270.968,0.29,12.49,47.84626,-54.09684
2020-01-17 14:09:01+00:00,285.1331,0.29,12.49,47.84626,-54.09684
2020-01-17 14:19:01+00:00,287.4897,0.21,12.57,47.84626,-54.09684
2020-01-17 14:29:01+00:00,289.2997,0.3,12.57,47.84626,-54.09684
2020-01-17 14:39:01+00:00,305.2547,0.3,12.57,47.84626,-54.09684
2020-01-17 14:49:01+00:00,315.3796,0.28,12.57,47.84626,-54.09684
2020-01-17 14:59:01+00:00,322.0964,0.28,12.57,47.84626,-54.09684
2020-01-17 15:09:01+00:00,325.3846,0.2,12.57,47.84626,-54.09684
2020-01-17 15:19:01+00:00,325.898,0.09,12.57,47.84626,-54.09684
2020-01-17 15:29:01+00:00,330.783,0.0,12.57,47.84626,-54.09684
2020-01-17 15:39:01+00:00,336.4063,-0.1,12.57,47.84626,-54.09684
2020-01-17 15:49:01+00:00,342.7580000000001,-0.1,12.57,47.84626,-54.09684
2020-01-17 15:59:01+00:00,333.8864,-0.1,12.57,47.84626,-54.09684
2020-01-17 16:09:01+00:00,331.5146,-0.2,12.57,47.84626,-54.09684
2020-01-17 16:19:01+00:00,339.2163,-0.3,12.57,47.84626,-54.09684
2020-01-17 16:29:01+00:00,346.3963,-0.2,12.57,47.84626,-54.09684
2020-01-17 16:39:01+00:00,346.6713,-0.04,12.57,47.84626,-54.09684
2020-01-17 16:49:01+00:00,350.5162,-0.2,12.57,47.84626,-54.09684
2020-01-17 16:59:01+00:00,358.6796,-0.2,12.57,47.84626,-54.09684
2020-01-17 17:09:01+00:00,352.3079,-0.04,12.57,47.84626,-54.09684
2020-01-17 17:19:01+00:00,347.4929,-0.1,12.57,47.84626,-54.09684
2020-01-17 17:29:01+00:00,352.5396,-0.4,12.57,47.84626,-54.09684
2020-01-17 17:39:01+00:00,356.4812,-0.4,12.57,47.84626,-54.09684
2020-01-17 17:49:01+00:00,349.838,-0.31,12.57,47.84626,-54.09684
2020-01-17 17:59:01+00:00,346.8162,-0.32,12.57,47.84626,-54.09684
2020-01-17 18:09:01+00:00,348.1013,-0.37,12.57,47.84626,-54.09684
2020-01-17 18:19:01+00:00,348.163,-0.52,12.57,47.84626,-54.09684
2020-01-17 18:29:01+00:00,344.9746,-0.46,12.57,47.84626,-54.09684
2020-01-17 18:39:01+00:00,335.468,-0.4,12.57,47.84626,-54.09684
2020-01-17 18:49:01+00:00,336.6447,-0.32,12.57,47.84626,-54.09684
2020-01-17 18:59:01+00:00,333.0647,-0.32,12.57,47.84626,-54.09684
2020-01-17 19:09:01+00:00,324.2197,-0.34,12.57,47.84626,-54.09684
2020-01-17 19:19:01+00:00,311.9397,-0.23,12.57,47.84626,-54.09684
2020-01-17 19:29:01+00:00,307.753,-0.31,12.57,47.84626,-54.09684
2020-01-17 19:39:01+00:00,303.963,-0.4,12.57,47.84626,-54.09684
2020-01-17 19:49:01+00:00,293.7414,-0.5,12.57,47.84626,-54.09684
2020-01-17 19:59:01+00:00,276.8414,-0.7,12.57,47.84626,-54.09684
2020-01-17 20:09:01+00:00,269.683,-0.59,12.57,47.84626,-54.09684
2020-01-17 20:19:01+00:00,269.5948,-0.6,12.57,47.84626,-54.09684
2020-01-17 20:29:01+00:00,259.8197,-0.5,12.57,47.84626,-54.09684
2020-01-17 20:39:01+00:00,242.1781,-0.41,12.57,47.84626,-54.09684
2020-01-17 20:49:01+00:00,238.9881,-0.5,12.57,47.84626,-54.09684
2020-01-17 20:59:01+00:00,240.1447,-0.56,12.57,47.84626,-54.09684
2020-01-17 21:09:01+00:00,226.6647,-0.5,12.57,47.84626,-54.09684
2020-01-17 21:19:01+00:00,213.5131,-0.37,12.57,47.84626,-54.09684
2020-01-17 21:29:01+00:00,217.1097,-0.4,12.57,47.84626,-54.09684
2020-01-17 21:39:01+00:00,217.9414,-0.4,12.57,47.84626,-54.09684
2020-01-17 21:49:01+00:00,201.4381,-0.4,12.57,47.84626,-54.09684
2020-01-17 21:59:01+00:00,196.8081,-0.31,12.57,47.84626,-54.09684
2020-01-17 22:09:01+00:00,207.4847,-0.31,12.57,47.84626,-54.09684
2020-01-17 22:19:01+00:00,205.2631,-0.31,12.57,47.84626,-54.09684
2020-01-17 22:29:01+00:00,192.6398,-0.4,12.57,47.84626,-54.09684
2020-01-17 22:39:01+00:00,198.6147,-0.34,12.57,47.84626,-54.09684
2020-01-17 22:49:01+00:00,210.3731,-0.3,12.57,47.84626,-54.09684
2020-01-17 22:59:01+00:00,210.8315,-0.25,12.57,47.84626,-54.09684
2020-01-17 23:09:01+00:00,209.4181,-0.3,12.57,47.84626,-54.09684
2020-01-17 23:19:01+00:00,213.8281,-0.36,12.57,47.84626,-54.09684
2020-01-17 23:29:01+00:00,219.0314,-0.3,12.57,47.84626,-54.09684
2020-01-17 23:39:01+00:00,221.4698,-0.33,12.57,47.84626,-54.09684
2020-01-17 23:49:01+00:00,225.8415,-0.3,12.57,47.84626,-54.09684
2020-01-17 23:59:01+00:00,230.4981,-0.32,12.57,47.84626,-54.09684
